Radioactive Concentration measured by Seawater Radiation Monitor near Fukushima Daiichi Nuclear Power Station
Date,Time,Cs137(Bq/L),Cs134(Bq/L),Total β(Bq/L)
2019/12/23,00:00,0.57,0.17,13
2019/12/23,00:10,0.59,0.15,15
2019/12/23,00:20,0.62,0.16,14
2019/12/23,00:30,0.61,0.16,14
2019/12/23,00:40,0.61,0.16,11
2019/12/23,00:50,0.61,0.14,13
2019/12/23,01:00,0.61,0.15,9.9
2019/12/23,01:10,0.59,0.16,10
2019/12/23,01:20,0.56,0.16,ND
2019/12/23,01:30,0.57,0.15,ND
2019/12/23,01:40,0.56,0.14,ND
2019/12/23,01:50,0.57,0.15,ND
2019/12/23,02:00,0.56,0.16,ND
2019/12/23,02:10,0.57,0.16,ND
2019/12/23,02:20,0.56,0.16,11
2019/12/23,02:30,0.56,0.15,11
2019/12/23,02:40,0.56,0.15,13
2019/12/23,02:50,0.55,0.15,13
2019/12/23,03:00,0.54,0.15,14
2019/12/23,03:10,0.52,0.15,14
2019/12/23,03:20,0.54,0.15,ND
2019/12/23,03:30,0.52,0.16,ND
2019/12/23,03:40,0.52,0.17,10
2019/12/23,03:50,0.55,0.16,9.3
2019/12/23,04:00,0.57,0.16,10
2019/12/23,04:10,0.57,0.16,12
2019/12/23,04:20,0.58,0.17,13
2019/12/23,04:30,0.60,0.15,12
2019/12/23,04:40,0.61,0.16,10
2019/12/23,04:50,0.61,0.15,11
2019/12/23,05:00,0.60,0.15,ND
2019/12/23,05:10,0.61,0.15,ND
2019/12/23,05:20,0.61,0.14,ND
2019/12/23,05:30,0.61,0.13,ND
2019/12/23,05:40,0.61,0.13,9.3
2019/12/23,05:50,0.63,0.13,10
2019/12/23,06:00,0.65,0.14,12
2019/12/23,06:10,0.66,0.14,14
2019/12/23,06:20,0.66,0.15,16
2019/12/23,06:30,0.66,0.16,15
2019/12/23,06:40,0.67,0.15,14
2019/12/23,06:50,0.64,0.15,14
2019/12/23,07:00,0.61,0.16,13
2019/12/23,07:10,0.63,0.15,13
2019/12/23,07:20,0.61,0.15,12
2019/12/23,07:30,0.59,0.15,12
2019/12/23,07:40,0.59,0.15,12
2019/12/23,07:50,0.57,0.16,10
2019/12/23,08:00,0.61,0.15,11
2019/12/23,08:10,0.59,0.15,9.9
2019/12/23,08:20,0.62,0.15,8.9
2019/12/23,08:30,0.64,0.15,9.9
2019/12/23,08:40,0.65,0.14,ND
2019/12/23,08:50,0.65,0.13,ND
2019/12/23,09:00,0.65,0.13,ND
2019/12/23,09:10,0.68,0.13,ND
2019/12/23,09:20,0.65,0.14,ND
2019/12/23,09:30,0.64,0.13,ND
2019/12/23,09:40,0.63,0.14,9.3
2019/12/23,09:50,0.63,0.14,10
2019/12/23,10:00,0.63,0.14,12
2019/12/23,10:10,0.62,0.14,14
2019/12/23,10:20,0.63,0.14,13
2019/12/23,10:30,-,-,-
2019/12/23,10:40,-,-,-
2019/12/23,10:50,-,-,-
2019/12/23,11:00,-,-,-
2019/12/23,11:10,-,-,-
2019/12/23,11:20,-,-,-
2019/12/23,11:30,-,-,-
2019/12/23,11:40,-,-,-
2019/12/23,11:50,-,-,-
2019/12/23,12:00,-,-,-
2019/12/23,12:10,-,-,-
2019/12/23,12:20,-,-,-
2019/12/23,12:30,-,-,-
2019/12/23,12:40,0.59,0.16,12
2019/12/23,12:50,0.57,0.16,15
2019/12/23,13:00,0.57,0.16,14
2019/12/23,13:10,0.55,0.15,11
2019/12/23,13:20,0.52,0.16,12
2019/12/23,13:30,0.53,0.16,10
2019/12/23,13:40,0.53,0.16,13
2019/12/23,13:50,0.54,0.17,11
2019/12/23,14:00,0.53,0.17,11
2019/12/23,14:10,0.53,0.18,15
2019/12/23,14:20,0.57,0.17,13
2019/12/23,14:30,0.59,0.17,13
2019/12/23,14:40,0.59,0.16,14
2019/12/23,14:50,0.60,0.16,13
2019/12/23,15:00,0.62,0.15,11
2019/12/23,15:10,0.62,0.14,ND
2019/12/23,15:20,0.62,0.14,10
2019/12/23,15:30,0.61,0.13,12
2019/12/23,15:40,0.59,0.15,ND
2019/12/23,15:50,0.60,0.15,ND
2019/12/23,16:00,0.57,0.16,ND
2019/12/23,16:10,0.57,0.16,8.8
2019/12/23,16:20,0.55,0.16,ND
2019/12/23,16:30,0.56,0.17,ND
2019/12/23,16:40,0.57,0.17,ND
2019/12/23,16:50,0.57,0.17,11
2019/12/23,17:00,0.58,0.16,14
2019/12/23,17:10,0.58,0.17,14
2019/12/23,17:20,0.59,0.17,13
2019/12/23,17:30,0.58,0.16,13
2019/12/23,17:40,0.57,0.16,12
2019/12/23,17:50,0.56,0.16,11
2019/12/23,18:00,0.56,0.16,10
2019/12/23,18:10,0.55,0.16,12
2019/12/23,18:20,0.56,0.15,13
2019/12/23,18:30,0.54,0.15,13
2019/12/23,18:40,0.56,0.15,14
2019/12/23,18:50,0.56,0.15,15
2019/12/23,19:00,0.55,0.15,16
2019/12/23,19:10,0.53,0.15,13
2019/12/23,19:20,0.56,0.15,13
2019/12/23,19:30,0.55,0.16,14
2019/12/23,19:40,0.54,0.16,14
2019/12/23,19:50,0.55,0.16,12
2019/12/23,20:00,0.57,0.15,11
2019/12/23,20:10,0.59,0.14,10
2019/12/23,20:20,0.57,0.14,9.3
2019/12/23,20:30,0.58,0.14,10
2019/12/23,20:40,0.60,0.14,12
2019/12/23,20:50,0.59,0.13,11
2019/12/23,21:00,0.58,0.14,12
2019/12/23,21:10,0.56,0.15,15
2019/12/23,21:20,0.60,0.15,12
2019/12/23,21:30,0.56,0.16,11
2019/12/23,21:40,0.53,0.16,10
2019/12/23,21:50,0.50,0.17,12
2019/12/23,22:00,0.50,0.16,13
2019/12/23,22:10,0.51,0.15,13
2019/12/23,22:20,0.49,0.16,13
2019/12/23,22:30,0.50,0.15,14
2019/12/23,22:40,0.51,0.15,15
2019/12/23,22:50,0.55,0.14,14
2019/12/23,23:00,0.55,0.14,12
2019/12/23,23:10,0.55,0.15,12
2019/12/23,23:20,0.55,0.15,12
2019/12/23,23:30,0.57,0.14,11
2019/12/23,23:40,0.56,0.15,9.9
2019/12/23,23:50,0.55,0.14,ND
